TimeCST,TemperatureF,Dew PointF,Humidity,Sea Level PressureIn,VisibilityMPH,Wind Direction,Wind SpeedMPH,Gust SpeedMPH,PrecipitationIn,Events,Conditions,WindDirDegrees,DateUTC
12:56 AM,19.0,16.0,88,29.80,-9999.0,SSE,11.5,-,N/A,,Unknown,160,2014-02-17 06:56:00
1:56 AM,19.9,17.1,89,29.77,-9999.0,SSE,9.2,-,N/A,,Unknown,160,2014-02-17 07:56:00
2:56 AM,19.9,17.1,89,29.74,-9999.0,SSE,9.2,-,0.01,,Unknown,150,2014-02-17 08:56:00
3:56 AM,19.9,19.0,96,29.74,-9999.0,Calm,Calm,-,0.02,,Unknown,0,2014-02-17 09:56:00
4:56 AM,19.9,18.0,92,29.74,-9999.0,Calm,Calm,-,0.03,,Unknown,0,2014-02-17 10:56:00
5:56 AM,19.9,19.0,96,29.76,-9999.0,WNW,3.5,-,0.01,,Unknown,290,2014-02-17 11:56:00
6:56 AM,21.9,19.0,89,29.74,-9999.0,Calm,Calm,-,N/A,,Unknown,0,2014-02-17 12:56:00
7:56 AM,19.9,18.0,92,29.74,-9999.0,NW,5.8,-,N/A,,Unknown,310,2014-02-17 13:56:00
8:56 AM,28.0,21.9,78,29.73,-9999.0,WNW,18.4,-,N/A,,Unknown,290,2014-02-17 14:56:00
9:56 AM,30.9,23.0,72,29.74,-9999.0,NW,19.6,-,N/A,,Unknown,310,2014-02-17 15:56:00
10:56 AM,33.1,24.1,70,29.75,-9999.0,NW,17.3,28.8,N/A,,Unknown,320,2014-02-17 16:56:00
11:56 AM,35.1,25.0,67,29.76,-9999.0,NW,21.9,-,N/A,,Unknown,320,2014-02-17 17:56:00
12:56 PM,37.0,27.0,67,29.75,-9999.0,NW,24.2,27.6,N/A,,Unknown,310,2014-02-17 18:56:00
1:56 PM,37.9,27.0,65,29.75,-9999.0,NW,17.3,-,N/A,,Unknown,310,2014-02-17 19:56:00
2:56 PM,39.0,27.0,62,29.75,-9999.0,WNW,16.1,-,N/A,,Unknown,300,2014-02-17 20:56:00
3:56 PM,39.0,27.0,62,29.76,-9999.0,West,16.1,19.6,N/A,,Unknown,270,2014-02-17 21:56:00
4:56 PM,37.9,27.0,65,29.76,-9999.0,West,12.7,-,N/A,,Unknown,270,2014-02-17 22:56:00
5:56 PM,35.1,26.1,70,29.76,-9999.0,West,8.1,-,N/A,,Unknown,260,2014-02-17 23:56:00
6:56 PM,35.1,26.1,70,29.72,-9999.0,West,16.1,-,N/A,,Unknown,260,2014-02-18 00:56:00
7:56 PM,35.1,26.1,70,29.70,-9999.0,WSW,15.0,-,N/A,,Unknown,250,2014-02-18 01:56:00
8:56 PM,34.0,25.0,70,29.68,-9999.0,WSW,15.0,-,N/A,,Unknown,240,2014-02-18 02:56:00
9:56 PM,35.1,24.1,64,29.65,-9999.0,WSW,15.0,-,N/A,,Unknown,240,2014-02-18 03:56:00
10:56 PM,36.0,23.0,59,29.63,-9999.0,WSW,13.8,-,N/A,,Unknown,240,2014-02-18 04:56:00
11:56 PM,37.0,23.0,57,29.60,-9999.0,SW,18.4,-,N/A,,Unknown,230,2014-02-18 05:56:00